Weather History for Binghamton, NY

Change the Weather History Date:

Tuesday, January 8, 2013

  Actual Average Record
Temperature  
Mean Temperature 32 °F 22 °F  
Max Temperature 40 °F 29 °F 63 °F (1998)
Min Temperature 24 °F 16 °F -11 °F (1968)
Degree Days  
Heating Degree Days 33 43  
Month to date heating degree days 317 338  
Since 1 July heating degree days 2858 3083  
Cooling Degree Days 0 0  
Month to date cooling degree days 0 0  
Year to date cooling degree days 0 0  
Moisture  
Dew Point 19 °F    
Average Humidity 63    
Maximum Humidity 81    
Minimum Humidity 44    
Precipitation  
Precipitation 0.00 in 0.08 in 1.00 in (1998)
Month to date precipitation 0.03 0.64  
Year to date precipitation 0.03 0.64  
Snow  
Snow 0.00 in 0.70 in 6.90 in (1988)
Month to date snowfall 2.7 5.6  
Since 1 July snowfall 27.7 30.2  
Snow Depth 0.00 in    
Sea Level Pressure  
Sea Level Pressure 30.31 in    
Wind  
Wind Speed 6 mph (SSW)    
Max Wind Speed 10 mph    
Max Gust Speed 15 mph    
Visibility 10 miles    
Events      
T = Trace of Precipitation, MM = Missing Value Source: NWS Daily Summary

Daily Weather History Graph

Daily Weather History Graph

Search for Another Location

Airport:

Trip Planner

Search our weather history database for the weather conditions in past years. The results will help you decide how hot, cold, wet, or windy it might be!

Date:

Astronomy

Jan. 08, 2013 Rise Set
Actual Time 7:32 AM EST 4:49 PM EST
Civil Twilight 7:00 AM EST 5:20 PM EST
Nautical Twilight 6:25 AM EST 5:55 PM EST
Astronomical Twilight 5:52 AM EST 6:29 PM EST
Moon 4:02 AM EST (1/8) 1:49 PM EST (1/8)
Length of Visible Light 10h 20m
Length of Day
9h 17m
Waning Crescent, 14% of the Moon is Illuminated
Jan 8
Waning Crescent
Jan 11
New
Jan 18
First Quarter
Jan 26
Full
Feb 3
Last Quarter

Hourly Weather History & Observations

Time (EST) Temp. Windchill Dew Point Humidity Pressure Visibility Wind Dir Wind Speed Gust Speed Precip Events Conditions
12:53 AM 26.1 °F 18.4 °F 19.0 °F 75% 30.28 in 10.0 mi SSW 6.9 mph - N/A   Clear
1:53 AM 25.0 °F 18.1 °F 19.0 °F 78% 30.27 in 10.0 mi South 5.8 mph - N/A   Clear
2:53 AM 25.0 °F 17.1 °F 19.0 °F 78% 30.26 in 10.0 mi South 6.9 mph - N/A   Clear
3:53 AM 25.0 °F 19.3 °F 19.0 °F 78% 30.26 in 10.0 mi South 4.6 mph - N/A   Clear
4:53 AM 24.1 °F 19.7 °F 19.0 °F 81% 30.27 in 10.0 mi South 3.5 mph - N/A   Clear
5:53 AM 24.1 °F 17.0 °F 19.0 °F 81% 30.29 in 10.0 mi SSW 5.8 mph - N/A   Clear
6:53 AM 25.0 °F 15.5 °F 19.0 °F 78% 30.30 in 10.0 mi SSW 9.2 mph - N/A   Clear
7:53 AM 25.0 °F 16.3 °F 19.0 °F 78% 30.30 in 9.0 mi SSW 8.1 mph - N/A   Clear
8:53 AM 27.0 °F 20.5 °F 19.9 °F 75% 30.32 in 10.0 mi SW 5.8 mph - 0.01 in   Clear
9:53 AM 30.0 °F 20.5 °F 21.0 °F 69% 30.32 in 10.0 mi SSW 11.5 mph - N/A   Clear
10:53 AM 30.9 °F 23.5 °F 21.0 °F 67% 30.32 in 10.0 mi SW 8.1 mph - N/A   Clear
11:53 AM 34.0 °F 26.6 °F 21.0 °F 59% 30.30 in 10.0 mi SSW 9.2 mph - N/A   Clear
12:53 PM 37.9 °F 33.5 °F 21.0 °F 51% 30.30 in 10.0 mi WSW 5.8 mph - N/A   Clear
1:53 PM 39.0 °F 34.8 °F 19.9 °F 46% 30.29 in 10.0 mi WSW 5.8 mph - N/A   Clear
2:53 PM 39.0 °F 34.0 °F 19.0 °F 45% 30.30 in 10.0 mi West 6.9 mph - N/A   Clear
3:53 PM 39.0 °F 36.8 °F 19.0 °F 45% 30.31 in 10.0 mi SW 3.5 mph - N/A   Clear
4:53 PM 37.0 °F 33.3 °F 19.0 °F 48% 30.32 in 10.0 mi SSW 4.6 mph - N/A   Clear
5:53 PM 36.0 °F 31.1 °F 19.0 °F 50% 30.33 in 10.0 mi SW 5.8 mph - N/A   Clear
6:53 PM 36.0 °F 30.3 °F 19.0 °F 50% 30.35 in 10.0 mi SW 6.9 mph - N/A   Clear
7:53 PM 35.1 °F 31.0 °F 19.0 °F 52% 30.34 in 10.0 mi SSW 4.6 mph - N/A   Clear
8:53 PM 33.1 °F 27.7 °F 19.0 °F 56% 30.35 in 10.0 mi SW 5.8 mph - N/A   Clear
9:53 PM 33.1 °F 27.7 °F 19.0 °F 56% 30.34 in 10.0 mi SSW 5.8 mph - N/A   Clear
10:53 PM 33.1 °F 27.7 °F 19.0 °F 56% 30.35 in 10.0 mi SW 5.8 mph - N/A   Clear
11:53 PM 32.0 °F 28.7 °F 19.4 °F 60% 30.29 in 10.0 mi South 3.5 mph - N/A   Clear